Startpagina
METAR-TAF:

METAR-TAF

Vliegvelden :

Elsenborn

Bütgenbach, België

breedte: 50-28N, lengte: 006-11E, hoogte: 564 m

Actueel weer

Dit bericht is 23 minuten geleden gemaakt, om 06:15 UTC
Wind 3 kt uit het zuidwesten
Temperatuur 4°C
Vochtigheid 93%
Druk 1023 hPa
Zicht: 1300 m
nevel

METAR: EBLB 180615Z AUTO 22003KT 1300 BR NCD 04/03 Q1023 AMB

Tijdstip: 08:38 (06:38 UTC)


TAF: ontbreekt

Waarnemingen en weersverwachtingen van meer dan 4000 vliegvelden (METAR en TAF).

De beschikbare stations zijn de gele en rode punten op de kaart.

Ga met uw muis naar het station om de naam te zien.

Klik dan om waarnemingen en weersverwachtingen te zien.

kaart wijzigen: klik op de groene knoppen met een zwart kruis om in te zoomen, op de groene knop met een streepje om uit te zoomen of op de groene pijlen voor aangrenzende kaarten.


METAR-TAF: